QPF
0.00 0.00 0.00 0.00 0.00 0.00 0.00 0.00 0.00 0.00 0.00 0.00 0.00 0.00 0.00 0.00 0.00 0.00 0.00 0.00 0.00 0.00
0.00 0.00 0.00 0.00 0.00 0.00 0.00 0.00 0.00 0.00 0.00 0.00 0.00 0.00 0.00 0.00 0.00 0.00 0.00 0.00 0.00 0.01
0.00 0.00 0.00 0.00 0.00 0.00 0.00 0.00 0.00 0.00 0.00 0.00 0.00 0.00 0.00 0.00 0.00 0.00 0.00 0.01 0.01 0.01
0.00 0.00 0.00 0.00 0.00 0.00 0.00 0.00 0.00 0.00 0.00 0.00 0.00 0.00 0.00 0.00 0.00 0.00 0.00 0.01 0.01 0.00
0.00 0.00 0.00 0.00 0.00 0.00 0.00 0.00 0.00 0.00 0.00 0.00 0.00 0.00 0.00 0.00 0.00 0.00 0.01 0.02 0.03 0.03
0.00 0.00 0.00 0.00 0.00 0.00 0.00 0.00 0.00 0.00 0.00 0.00 0.00 0.01 0.01 0.01 0.02 0.01 0.01 0.03 0.04 0.04
0.00 0.00 0.00 0.00 0.00 0.00 0.00 0.00 0.00 0.00 0.01 0.01 0.01 0.01 0.01 0.01 0.01 0.01 0.02 0.03 0.04 0.04
0.00 0.00 0.00 0.00 0.00 0.00 0.00 0.00 0.00 0.00 0.00 0.00 0.00 0.00 0.00 0.01 0.01 0.01 0.01 0.02 0.02 0.02
0.00 0.00 0.00 0.00 0.00 0.00 0.00 0.00 0.00 0.00 0.00 0.00 0.00 0.00 0.00 0.00 0.00 0.00 0.00 0.00 0.00 0.00
0.00 0.00 0.00 0.00 0.00 0.00 0.00 0.00 0.00 0.00 0.00 0.00 0.00 0.00 0.00 0.00 0.00 0.00 0.00 0.00 0.00 0.00
0.00 0.00 0.00 0.00 0.00 0.00 0.00 0.00 0.00 0.00 0.00 0.00 0.00 0.00 0.00 0.00 0.00 0.00 0.00 0.00 0.00 0.00
0.00 0.00 0.00 0.00 0.00 0.00 0.00 0.00 0.00 0.00 0.00 0.00 0.00 0.00 0.00 0.00 0.00 0.00 0.00 0.00 0.00 0.00
0.00 0.00 0.00 0.00 0.00 0.00 0.00 0.00 0.00 0.00 0.00 0.00 0.00 0.00 0.00 0.00 0.00 0.00 0.00 0.00 0.00 0.00
0.00 0.00 0.00 0.00 0.00 0.00 0.00 0.00 0.00 0.00 0.00 0.00 0.00 0.00 0.00 0.00 0.00 0.00 0.00 0.00 0.00 0.00
MSLP
1015.42 1015.80 1016.18 1016.59 1016.92 1017.20 1017.38 1017.60 1017.85 1018.33 1018.74 1019.03 1019.34 1019.59 1020.01 1020.59 1020.72 1020.90 1021.08 1021.20 1021.42 1021.50
1014.41 1014.74 1014.93 1015.28 1015.98 1016.21 1016.49 1016.66 1017.07 1017.28 1017.76 1018.06 1018.55 1018.86 1019.09 1019.42 1019.51 1019.75 1019.73 1019.96 1020.30 1020.48
1013.31 1013.87 1014.25 1014.69 1015.01 1015.17 1015.30 1015.87 1016.26 1016.59 1016.93 1017.29 1017.55 1017.73 1018.28 1018.48 1018.61 1018.92 1018.86 1019.04 1019.16 1019.31
1012.85 1013.08 1013.47 1013.86 1014.06 1014.33 1014.71 1015.02 1015.41 1015.78 1016.13 1016.43 1016.77 1017.07 1017.45 1017.55 1017.68 1017.83 1017.89 1018.09 1018.26 1018.27
1012.41 1012.77 1013.08 1013.23 1013.48 1013.79 1014.08 1014.40 1014.75 1015.15 1015.32 1015.58 1015.83 1016.12 1016.28 1016.42 1016.65 1016.82 1016.99 1017.09 1017.55 1017.51
1012.12 1012.32 1012.46 1012.61 1012.88 1013.12 1013.43 1013.67 1014.01 1014.31 1014.52 1014.74 1014.93 1015.16 1015.23 1015.38 1015.53 1015.63 1015.63 1015.79 1016.26 1016.41
1012.34 1012.38 1012.47 1012.58 1012.63 1012.69 1012.80 1013.03 1013.33 1013.53 1013.61 1013.82 1014.02 1014.22 1014.38 1014.51 1014.67 1014.91 1015.03 1015.39 1015.62 1015.86
1012.52 1012.56 1012.55 1012.76 1012.92 1012.96 1013.09 1013.16 1013.18 1013.22 1013.47 1013.63 1013.77 1014.00 1014.21 1014.29 1014.64 1014.92 1015.11 1015.36 1015.91 1016.11
1012.73 1013.07 1013.06 1013.11 1013.32 1013.50 1013.58 1013.64 1013.70 1013.87 1014.00 1014.09 1014.16 1014.32 1014.50 1014.60 1014.90 1015.23 1015.35 1015.76 1016.02 1016.28
1013.19 1013.43 1013.58 1013.62 1013.70 1013.96 1014.20 1014.37 1014.59 1014.71 1014.76 1014.86 1014.95 1014.96 1014.88 1014.97 1015.22 1015.57 1015.88 1016.25 1016.64 1016.90
1013.63 1013.82 1014.01 1014.13 1014.34 1014.55 1014.72 1015.00 1015.22 1015.45 1015.45 1015.46 1015.44 1015.20 1015.20 1015.32 1015.43 1015.63 1015.81 1016.10 1016.46 1016.78
1014.22 1014.29 1014.45 1014.57 1014.74 1015.00 1015.22 1015.43 1015.60 1015.85 1015.95 1016.00 1016.03 1015.92 1015.78 1015.90 1016.14 1016.35 1016.57 1016.69 1016.72 1016.80
1014.64 1014.75 1014.84 1015.03 1015.26 1015.56 1015.69 1015.97 1016.02 1016.04 1016.18 1016.20 1016.18 1016.07 1015.85 1016.12 1016.44 1016.82 1017.02 1017.20 1017.26 1017.44
1015.26 1015.05 1015.11 1015.34 1015.54 1015.63 1015.87 1016.07 1016.30 1016.37 1016.50 1016.47 1016.30 1016.25 1016.11 1016.47 1016.74 1017.02 1017.11 1017.36 1017.65 1017.82
Thickness
5681 5679 5676 5674 5671 5668 5668 5665 5661 5655 5649 5645 5640 5637 5631 5625 5622 5617 5614 5610 5605 5601
5680 5680 5680 5677 5671 5670 5668 5665 5659 5655 5650 5644 5638 5633 5628 5624 5622 5617 5616 5611 5605 5600
5680 5677 5675 5673 5671 5670 5668 5662 5658 5653 5648 5641 5635 5631 5625 5623 5620 5613 5612 5607 5604 5599
5675 5675 5671 5669 5670 5667 5663 5659 5654 5649 5644 5640 5634 5629 5623 5621 5617 5612 5609 5605 5600 5597
5671 5668 5666 5666 5663 5661 5658 5654 5650 5644 5641 5637 5632 5627 5623 5619 5614 5609 5605 5601 5593 5591
5668 5666 5665 5664 5661 5658 5654 5651 5646 5642 5638 5634 5629 5624 5621 5616 5612 5608 5605 5600 5594 5590
5657 5657 5656 5655 5654 5653 5651 5647 5642 5638 5635 5631 5626 5621 5617 5612 5607 5603 5599 5592 5587 5582
5644 5644 5645 5642 5640 5638 5635 5633 5631 5629 5624 5620 5616 5611 5605 5602 5596 5591 5586 5581 5571 5566
5631 5628 5629 5628 5625 5621 5618 5616 5614 5611 5607 5604 5600 5596 5591 5587 5582 5575 5571 5564 5557 5550
5614 5614 5612 5610 5608 5604 5601 5597 5593 5590 5587 5583 5580 5577 5575 5571 5566 5560 5554 5547 5540 5533
5598 5596 5594 5593 5591 5587 5584 5580 5576 5571 5568 5565 5563 5562 5559 5555 5550 5545 5540 5534 5528 5521
5579 5577 5577 5576 5574 5570 5566 5562 5558 5554 5551 5548 5545 5543 5540 5535 5529 5524 5519 5515 5512 5507
5561 5560 5560 5558 5554 5550 5548 5543 5540 5539 5535 5532 5529 5527 5525 5519 5513 5509 5504 5498 5494 5489
5543 5545 5543 5540 5537 5536 5532 5529 5524 5522 5518 5516 5514 5512 5510 5504 5499 5495 5491 5486 5482 5477